Flag for Canada Weather past 2 weeks in Saint-Jérôme, Quebec, Canada

Now
59 °F

Scattered clouds.


Feels Like: 58 °F
Forecast: 54 / 73 °F
Wind: 6 mph from Northwest

Location: Montreal / Mirabel

Current Time: Jul 24, 2014 at 9:13:03 AM

Latest Report: Jul 24, 2014 at 8:00 AM


Visibility: 45 mi

Pressure: 29.99 "Hg

Humidity: 68%

Dew point: 48 °F

Location of Saint-JérômeLocation

Historic Weather in Saint-Jérôme — Graph

°F

Saint-Jérôme temperature yesterday

Maximum temperature yesterday: 79 °F (at 2:00 PM)
Minimum temperature yesterday: 63 °F (at 10:00 PM)
Average temperature yesterday: 71 °F

Past Weeks' High & Low Weather Summary

 TemperatureHumidityPressure
High81 °F (Jul 20, 4:00 PM)100% (Jul 11, 1:00 AM)30.29 "Hg (Jul 11, 1:00 AM)
Low48 °F (Jul 11, 5:00 AM)41% (Jul 11, 3:00 PM)29.67 "Hg (Jul 13, 6:00 PM)
Average66 °F78%29.99 "Hg
* Reported Jul 9 9:00 AM — Jul 24 7:00 AM, Saint-Jérôme, Weather by CustomWeather, © 2014

Note: Actual official high and low records may vary slightly from our data, if they occured in-between our weather recording intervals... More about our weather records

Advertising

Saint-Jérôme weather history for previous 24 hours

 ConditionsComfort  
Time TempWeatherWind HumidityBarometerVisibility
7:00 AM
Jul 24
55 °FPassing clouds.3 mph77%29.98 "Hg45 mi
6:00 AM50 °FPassing clouds.3 mph88%29.96 "Hg45 mi
5:00 AM55 °FPartly cloudy.5 mph72%29.94 "Hg25 mi
4:00 AM57 °FPartly cloudy.5 mph67%29.93 "Hg25 mi
3:00 AM59 °FPartly cloudy.8 mph63%29.92 "Hg25 mi
2:00 AM59 °FPassing clouds.10 mph68%29.91 "Hg25 mi
1:00 AM59 °FPassing clouds.7 mph72%29.90 "Hg25 mi
12:00 AM61 °FPassing clouds.8 mph72%29.90 "Hg25 mi
11:00 PM
Jul 23
63 °FPassing clouds.6 mph73%29.89 "Hg25 mi
10:00 PM63 °FPassing clouds.5 mph77%29.88 "Hg15 mi
9:00 PM66 °FMild.5 mph68%29.86 "Hg25 mi
8:00 PM70 °FPartly sunny.8 mph60%29.85 "Hg45 mi
7:00 PM72 °FBroken clouds.8 mph61%29.82 "Hg45 mi
6:00 PM73 °FPartly sunny.14 mph57%29.80 "Hg45 mi
5:00 PM75 °FScattered clouds.16 mph57%29.78 "Hg45 mi
4:00 PM75 °FPassing clouds.18 mph61%29.77 "Hg45 mi
3:00 PM77 °FBroken clouds.13 mph65%29.76 "Hg25 mi
2:00 PM79 °FScattered clouds.9 mph70%29.74 "Hg20 mi
1:00 PM72 °FSprinkles. Mostly cloudy.7 mph88%29.75 "Hg10 mi
12:00 PM73 °FFog.6 mph94%29.74 "Hg6 mi
11:00 AM72 °FFog.5 mph94%29.76 "Hg6 mi
10:00 AM70 °FSprinkles. Fog.5 mph100%29.76 "Hg4 mi
9:00 AM70 °FFog.6 mph94%29.77 "Hg5 mi
Weather by CustomWeather, © 2014

See weather overviewHow to use our weather pages